This is the latest recevied weather packets stored in our database for station/object N0NB. If no packets are shown the sender has not sent any weather packets the latest 10 day(s).
| Time | Temp. | Humidity | Pressure | Rain* | Wind** | Luminosity | Snow |
|---|---|---|---|---|---|---|---|
| 1777603215 | 10.56° C | 61% | 1018.5 hPa | 0 mm | - | 0 W/m² | - |
| 1777602615 | 10.56° C | 60% | 1018.3 hPa | 0 mm | - | 0 W/m² | - |
| 1777602015 | 11.11° C | 58% | 1018.1 hPa | 0 mm | - | 0 W/m² | - |
| 1777601415 | 11.11° C | 57% | 1018 hPa | 0 mm | - | 0 W/m² | - |
| 1777600816 | 11.11° C | 57% | 1017.8 hPa | 0 mm | - | 0 W/m² | - |
| 1777600215 | 11.11° C | 57% | 1017.5 hPa | 0 mm | - | 0 W/m² | - |
| 1777599615 | 11.67° C | 56% | 1017.5 hPa | 0 mm | - | 0 W/m² | - |
| 1777599015 | 12.22° C | 54% | 1017.4 hPa | 0 mm | - | 0 W/m² | - |
| 1777598417 | 12.22° C | 53% | 1017.2 hPa | 0 mm | - | 4 W/m² | - |
| 1777597818 | 12.78° C | 51% | 1016.9 hPa | 0 mm | - | 9 W/m² | - |
| 1777597217 | 13.33° C | 50% | 1016.8 hPa | 0 mm | - | 19 W/m² | - |
| 1777596617 | 13.89° C | 49% | 1016.7 hPa | 0 mm | - | 31 W/m² | - |
| 1777596017 | 13.89° C | 48% | 1016.5 hPa | 0 mm | - | 65 W/m² | - |
| 1777595417 | 13.89° C | 46% | 1016.4 hPa | 0 mm | - | 51 W/m² | - |
| 1777594817 | 14.44° C | 45% | 1016.4 hPa | 0 mm | - | 120 W/m² | - |
| 1777594217 | 14.44° C | 46% | 1016.4 hPa | 0 mm | - | 152 W/m² | - |
| 1777593617 | 14.44° C | 47% | 1016.3 hPa | 0 mm | - | 93 W/m² | - |
| 1777593017 | 14.44° C | 46% | 1016.3 hPa | 0 mm | - | 84 W/m² | - |
| 1777592417 | 15° C | 45% | 1016.3 hPa | 0 mm | - | 106 W/m² | - |
| 1777591817 | 15.56° C | 42% | 1016.3 hPa | 0 mm | - | 155 W/m² | - |
| 1777591217 | 15.56° C | 43% | 1016.2 hPa | 0 mm | - | 346 W/m² | - |
| 1777590617 | 15° C | 44% | 1016.2 hPa | 0 mm | - | 142 W/m² | - |
| 1777590017 | 14.44° C | 44% | 1016.2 hPa | 0 mm | - | 161 W/m² | - |
| 1777589417 | 15° C | 44% | 1016.1 hPa | 0 mm | - | 76 W/m² | - |
| 1777588817 | 16.11° C | 41% | 1016.2 hPa | 0 mm | - | 101 W/m² | - |
* Rain latest hour (hover to see other rain measurements)
** Current wind speed in m/s (hover to see current wind gust speed)